[[{"header":{"parameterUnit":"m.s-1","parameterCategory":1,"la1":30.2992,"la2":30.254,"lo1":-89.0895,"lo2":-89.0443,"dy":0.0025,"dx":0.0025,"nx":19,"ny":19,"refTime":"2026-05-14T21:00:00:Z","depth":0,"parameterNumber":2,"parameterNumberName":"U-component_of_WINDS"},"data":[0,0,0,-1.3039,-1.3039,-1.3052,-1.3052,-1.3078,-1.3078,0,0,0,0,0,0,0,0,0,0,0,-1.3039,-1.304,-1.3039,-1.3039,-1.3052,-1.3052,-1.3078,-1.3078,0,0,0,0,0,0,0,0,0,0,0,-1.3039,-1.3039,-1.304,-1.3039,-1.3052,-1.3052,-1.3078,-1.3065,0,0,0,0,0,0,0,0,0,0,-1.3051,-1.3055,-1.3039,-1.304,-1.3039,-1.3052,-1.3052,-1.3064,-1.3066,-1.3076,0,-1.3085,0,-1.3082,-1.3081,-1.3081,0,0,0,-1.3036,-1.3054,-1.3054,-1.304,-1.3039,-1.3052,-1.3045,-1.3065,-1.3067,-1.3078,-1.3085,-1.3086,-1.3082,-1.3081,-1.3081,-1.3146,-1.3147,0,0,-1.3035,-1.3044,-1.3052,-1.3055,-1.3052,-1.3045,-1.3046,-1.3066,-1.3075,-1.3085,-1.3086,-1.3083,-1.3081,-1.3081,-1.3146,-1.3146,0,0,0,-1.3035,-1.3044,-1.3043,-1.3054,-1.3056,-1.3046,-1.3047,-1.3074,-1.3073,-1.3086,-1.3083,-1.3081,-1.3082,-1.3145,-1.3146,-1.3176,0,0,0,-1.3035,-1.3044,-1.3042,-1.3048,-1.3056,-1.3065,-1.3054,-1.3071,-1.3073,-1.3083,-1.3081,-1.3082,-1.3145,-1.3146,-1.3174,-1.3189,0,0,0,-1.3037,-1.3044,-1.3047,-1.3048,-1.3054,-1.3064,-1.3064,-1.3072,-1.3072,-1.3081,-1.3082,-1.3144,-1.3145,-1.3173,-1.3186,-1.3209,0,0,0,-1.3042,-1.3074,-1.3048,-1.3083,-1.3054,-1.3083,-1.3064,-1.3085,-1.3096,-1.3081,-1.3145,-1.3146,-1.3172,-1.3185,-1.3207,-1.3229,-1.3239,0,0,-1.3088,-1.308,-1.31,-1.3077,-1.3112,-1.308,-1.312,-1.3123,-1.3116,-1.3137,-1.3138,-1.3175,-1.3186,-1.3209,-1.3293,-1.3301,0,0,0,-1.3117,-1.3132,-1.3139,-1.3151,-1.3153,-1.3157,-1.3152,-1.3154,-1.3171,-1.3128,-1.3189,-1.3196,-1.3208,-1.3219,-1.3225,-1.3236,-1.3151,-1.3151,-1.3151,-1.3194,-1.3184,-1.3216,-1.3208,-1.3219,-1.3215,-1.3223,-1.3224,-1.321,-1.3225,-1.3231,-1.3283,-1.3296,-1.3301,-1.3312,-1.3242,-1.3242,-1.3242,-1.3242,-1.326,-1.3279,-1.326,-1.3285,-1.3274,-1.3296,-1.3293,-1.3283,-1.3302,-1.3278,-1.3289,-1.3263,-1.331,-1.3319,-1.3244,-1.3244,-1.3244,-1.3244,-1.3243,-1.3309,-1.3316,-1.3317,-1.3333,-1.3347,-1.3337,-1.3356,-1.3346,-1.3336,-1.3347,-1.3352,-1.3352,-1.335,-1.335,-1.3351,-1.3351,-1.3351,-1.3351,-1.3351,-1.336,-1.3359,-1.3376,-1.3382,-1.3389,-1.3396,-1.3393,-1.3399,-1.3403,-1.3394,-1.3394,-1.3379,-1.3316,-1.33,-1.3354,-1.3353,-1.3353,-1.3353,-1.3353,-1.343,-1.3412,-1.3438,-1.3445,-1.3452,-1.3466,-1.3453,-1.3467,-1.3471,-1.3481,-1.3464,-1.3419,-1.341,-1.3405,-1.3392,-1.3466,-1.3466,-1.3466,-1.3466,-1.3471,-1.3466,-1.349,-1.3501,-1.3511,-1.3502,-1.3533,-1.3531,-1.3527,-1.3529,-1.3517,-1.3499,-1.3494,-1.3488,-1.3481,-1.3468,-1.356,-1.356,-1.356,-1.3514,-1.3509,-1.3537,-1.3532,-1.3537,-1.3542,-1.357,-1.3585,-1.3576,-1.3564,-1.353,-1.3526,-1.3497,-1.3488,-1.3474,-1.3463,-1.344,0,0]},{"header":{"parameterUnit":"m.s-1","parameterCategory":1,"la1":30.2992,"la2":30.254,"lo1":-89.0895,"lo2":-89.0443,"dy":0.0025,"dx":0.0025,"nx":19,"ny":19,"refTime":"2026-05-14T21:00:00:Z","depth":0,"parameterNumber":3,"parameterNumberName":"V-component_of_WINDS"},"data":[0,0,0,3.0902,3.0903,3.0931,3.0931,3.0969,3.0969,0,0,0,0,0,0,0,0,0,0,0,3.0896,3.0896,3.0902,3.0903,3.0931,3.0931,3.0969,3.0969,0,0,0,0,0,0,0,0,0,0,0,3.0896,3.0896,3.0897,3.0903,3.0931,3.0931,3.0969,3.0947,0,0,0,0,0,0,0,0,0,0,3.0919,3.0915,3.0896,3.0897,3.0903,3.0931,3.0931,3.0946,3.0948,3.0957,0,3.0966,0,3.0969,3.0972,3.0972,0,0,0,3.0901,3.0913,3.0919,3.0897,3.0904,3.0931,3.0918,3.0947,3.095,3.0961,3.0967,3.0968,3.0969,3.0972,3.0972,3.1031,3.1032,0,0,3.09,3.0902,3.0917,3.0921,3.0918,3.0917,3.0919,3.0949,3.0956,3.0967,3.0969,3.097,3.0973,3.0973,3.1031,3.1031,0,0,0,3.0896,3.0901,3.0906,3.092,3.0924,3.0918,3.092,3.0954,3.0956,3.097,3.097,3.0973,3.0973,3.1031,3.1031,3.105,0,0,0,3.0895,3.0899,3.0905,3.0907,3.0924,3.094,3.0925,3.0954,3.0957,3.097,3.0973,3.0974,3.103,3.1031,3.1049,3.1059,0,0,0,3.0893,3.0899,3.0903,3.0907,3.0919,3.0939,3.0943,3.0954,3.0958,3.0972,3.0974,3.103,3.1031,3.1048,3.1057,3.1075,0,0,0,3.0892,3.092,3.0904,3.0936,3.0919,3.0951,3.0942,3.0966,3.0981,3.0973,3.103,3.1031,3.1047,3.1056,3.1074,3.1091,3.1098,0,0,3.0929,3.0925,3.0943,3.0929,3.0965,3.0947,3.0985,3.0997,3.0996,3.1019,3.1021,3.1049,3.1057,3.1075,3.1137,3.1143,0,0,0,3.0956,3.0969,3.0978,3.0993,3.1002,3.1011,3.1016,3.102,3.104,3.1009,3.1061,3.1065,3.1075,3.1083,3.1088,3.1097,3.1035,3.1035,3.1035,3.1012,3.1009,3.1039,3.104,3.1054,3.1059,3.107,3.1076,3.107,3.1082,3.1089,3.1127,3.1137,3.114,3.1149,3.1097,3.1098,3.1098,3.1098,3.1066,3.1084,3.1074,3.11,3.1097,3.1119,3.1124,3.1119,3.1138,3.1122,3.1131,3.1114,3.1147,3.1154,3.1099,3.1099,3.1099,3.1099,3.1098,3.1102,3.1111,3.1115,3.1135,3.115,3.1149,3.1168,3.1165,3.1161,3.117,3.1177,3.1177,3.1176,3.1174,3.1174,3.1174,3.1174,3.1174,3.1174,3.1138,3.1143,3.1159,3.1171,3.1179,3.119,3.1194,3.1202,3.1209,3.1205,3.1205,3.1197,3.115,3.1139,3.1176,3.1176,3.1176,3.1175,3.1175,3.1195,3.1181,3.1207,3.1215,3.1228,3.1243,3.1238,3.1254,3.126,3.1269,3.1259,3.1225,3.122,3.1216,3.1206,3.1259,3.1259,3.1259,3.1259,3.1226,3.1223,3.1248,3.1261,3.1273,3.1271,3.1299,3.1302,3.1303,3.1307,3.1298,3.1285,3.1281,3.1279,3.1274,3.1264,3.1331,3.1331,3.1331,3.126,3.1258,3.1283,3.1284,3.1294,3.1302,3.1328,3.1343,3.1341,3.1334,3.1309,3.1306,3.1284,3.1278,3.127,3.1262,3.1245,0,0]}]]